Weather History for KAMW - December, 2014

Change the Weather History Date:

Sunday, December 21, 2014

  Actual Average Record
Temperature  
Mean Temperature 38 °F 21 °F  
Max Temperature 41 °F 30 °F 56 °F (1941)
Min Temperature 34 °F 13 °F -27 °F (1963)
Degree Days  
Heating Degree Days 27 44  
Month to date heating degree days 720 855  
Since 1 July heating degree days 2342 2309  
Cooling Degree Days 0 0  
Month to date cooling degree days 0 0  
Year to date cooling degree days 650 752  
Moisture  
Dew Point 35 °F    
Average Humidity 87    
Maximum Humidity 100    
Minimum Humidity 73    
Precipitation  
Precipitation 0.00 in 0.02 in 0.83 in (1984)
Month to date precipitation 0.66 0.85  
Sea Level Pressure  
Sea Level Pressure 29.90 in    
Wind  
Wind Speed 14 mph (SSE)    
Max Wind Speed 22 mph    
Max Gust Speed 27 mph    
Visibility 7 miles    
Events Fog    
T = Trace of Precipitation, MM = Missing Value Source: NWS Daily Summary

Daily Weather History Graph

Daily Weather History Graph

Search for Another Location

Airport or City:

Trip Planner

Search our weather history database for the weather conditions in past years. The results will help you decide how hot, cold, wet, or windy it might be!

Date:

Astronomy

Dec. 21, 2014 Rise Set
Actual Time 7:39 AM CST 4:46 PM CST
Civil Twilight 7:07 AM CST 5:17 PM CST
Nautical Twilight 6:32 AM CST 5:53 PM CST
Astronomical Twilight 5:58 AM CST 6:27 PM CST
Moon 6:54 AM CST (12/21) 4:54 PM CST (12/21)
Length of Visible Light 10h 10m
Length of Day
9h 07m
Waning Crescent, 0% of the Moon is Illuminated
Dec 21
Waning Crescent
Dec 21
New
Dec 28
First Quarter
Jan 4
Full
Jan 13
Last Quarter

Hourly Weather History & Observations

Time (CST) Temp. Windchill Dew Point Humidity Pressure Visibility Wind Dir Wind Speed Gust Speed Precip Events Conditions
12:53 AM 34.0 °F 28.0 °F 33.1 °F 96% 30.09 in 0.5 mi South 6.9 mph - N/A Fog Fog
1:29 AM 34.0 °F 27.2 °F 33.1 °F 96% 30.06 in 0.2 mi SSE 8.1 mph - N/A Fog Fog
1:53 AM 35.1 °F 27.4 °F 34.0 °F 96% 30.07 in 0.5 mi SSE 10.4 mph - N/A Fog Fog
2:53 AM 35.1 °F 28.6 °F 34.0 °F 96% 30.05 in 1.2 mi SSE 8.1 mph - N/A   Overcast
3:11 AM 36.0 °F 29.0 °F 35.1 °F 97% 30.02 in 2.0 mi SSE 9.2 mph - N/A   Overcast
3:29 AM 36.0 °F 28.5 °F 35.1 °F 97% 30.01 in 3.0 mi SSE 10.4 mph - N/A   Overcast
3:53 AM 36.0 °F 28.5 °F 35.1 °F 97% 30.02 in 4.0 mi South 10.4 mph - N/A   Overcast
4:17 AM 36.0 °F 29.6 °F 35.1 °F 97% 30.00 in 4.0 mi South 8.1 mph - N/A   Overcast
4:53 AM 37.0 °F 30.4 °F 34.0 °F 89% 30.01 in 5.0 mi South 9.2 mph - N/A   Overcast
5:34 AM 37.0 °F 28.5 °F 34.0 °F 89% 29.98 in 5.0 mi South 13.8 mph - N/A   Overcast
5:53 AM 37.0 °F 28.1 °F 34.0 °F 89% 30.00 in 5.0 mi SSE 15.0 mph - N/A   Overcast
6:45 AM 37.0 °F 28.9 °F 34.0 °F 89% 29.97 in 5.0 mi South 12.7 mph - N/A   Overcast
6:53 AM 37.0 °F 29.3 °F 34.0 °F 89% 29.99 in 5.0 mi South 11.5 mph - N/A   Overcast
7:53 AM 37.0 °F 27.7 °F 33.1 °F 86% 29.97 in 6.0 mi South 16.1 mph - N/A   Overcast
8:53 AM 37.0 °F 28.5 °F 34.0 °F 89% 29.96 in 5.0 mi South 13.8 mph - N/A   Overcast
9:53 AM 37.9 °F 28.5 °F 33.1 °F 83% 29.95 in 6.0 mi South 17.3 mph - N/A   Haze
10:53 AM 39.0 °F 29.9 °F 33.1 °F 79% 29.93 in 8.0 mi South 17.3 mph 25.3 mph N/A   Overcast
11:48 AM 39.2 °F 30.5 °F 33.8 °F 81% 29.88 in 7.0 mi South 16.1 mph 27.6 mph N/A   Overcast
11:53 AM 39.0 °F 30.3 °F 34.0 °F 82% 29.90 in 7.0 mi South 16.1 mph - N/A   Overcast
12:53 PM 39.0 °F 29.9 °F 35.1 °F 86% 29.87 in 8.0 mi South 17.3 mph 23.0 mph N/A   Overcast
1:53 PM 39.9 °F 31.8 °F 35.1 °F 83% 29.84 in 9.0 mi South 15.0 mph 23.0 mph N/A   Overcast
2:24 PM 41.0 °F 33.5 °F 35.1 °F 79% 29.81 in 10.0 mi South 13.8 mph - N/A   Overcast
2:53 PM 41.0 °F 32.8 °F 34.0 °F 76% 29.82 in 10.0 mi South 16.1 mph 23.0 mph N/A   Overcast
3:53 PM 39.9 °F 32.5 °F 35.1 °F 83% 29.82 in 10.0 mi South 12.7 mph - N/A   Overcast
4:53 PM 39.9 °F 32.9 °F 35.1 °F 83% 29.81 in 10.0 mi South 11.5 mph - N/A   Overcast
5:23 PM 39.9 °F 33.4 °F 35.1 °F 83% 29.80 in 10.0 mi SSE 10.4 mph - N/A   Overcast
5:53 PM 39.9 °F 33.9 °F 36.0 °F 86% 29.81 in 10.0 mi South 9.2 mph - N/A   Overcast
6:53 PM 39.9 °F 32.9 °F 36.0 °F 86% 29.80 in 8.0 mi SSE 11.5 mph - N/A   Overcast
7:53 PM 39.9 °F 32.9 °F 37.0 °F 89% 29.79 in 10.0 mi SSE 11.5 mph - N/A   Overcast
8:53 PM 41.0 °F 33.5 °F 37.0 °F 86% 29.78 in 10.0 mi SSE 13.8 mph - N/A   Overcast
9:49 PM 41.0 °F 33.1 °F 37.4 °F 87% 29.76 in 9.0 mi SSE 15.0 mph - N/A   Overcast
9:53 PM 41.0 °F 33.1 °F 37.9 °F 89% 29.77 in 9.0 mi SSE 15.0 mph - N/A   Overcast
10:06 PM 41.0 °F 32.8 °F 37.9 °F 89% 29.75 in 10.0 mi SSE 16.1 mph - N/A   Overcast
10:53 PM 41.0 °F 33.5 °F 37.9 °F 89% 29.76 in 10.0 mi SSE 13.8 mph - N/A   Overcast
11:53 PM 41.0 °F 32.8 °F 37.9 °F 89% 29.76 in 9.0 mi South 16.1 mph - N/A   Overcast